Location: Gombori
(14.9797°N, 2.9419°W)
Time: 02:24:44
(UTC+00:00)

CZ-4 R/B - Pass Details

Date: 09 December 2021
Orbit: 531 x 594 km, 97.7° (Epoch: 27 January)

Event Time Altitude Azimuth Distance (km) Brightness Sun altitude
Rises 19:15:27 0° 165° (SSE) 2,812 5.0 -21.9°
Reaches altitude 10° 19:17:37 10° 164° (SSE) 1,907 4.1 -22.3°
Enters shadow 19:20:45 50° 151° (SSE) 747 1.8 -23.1°
